Terminal Aerodrome Forecast
Issued by NWS

Current Version | Previous Version | Graphics & Text | Print | Product List | Glossary On
Versions: 1 2 3 4 5 6 7 8 9 10 11 12 13 14 15 16 17 18 19 20 21 22 23 24 25
109
FTUS41 KRLX 152113 AAC
TAFCKB
TAF AMD
KCKB 152113Z 1521/1618 18005KT P6SM BKN040 OVC080
     FM160600 19005KT 3SM -SN OVC025
     FM160700 19005KT 3SM -SN OVC015
     FM160800 19005KT 1/2SM SN OVC008
     FM161100 24005KT 2SM -SN OVC015
     FM161300 25005G16KT 5SM -SN OVC025=

USA.gov is the U.S. government's official web portal to all federal, state and local government web resources and services.